owner,sensor,date,latitude,longitude,vertical_datum,direction_of_sea_water_velocity,sea_water_speed,upward_sea_water_velocity,qcFlag 
TABS,ioos:station:wmo:42047:1,2011-07-01T00:00:00Z,27.8966,-93.5973,2.0,259.4559363,37.98128618,-99999.0,'11111222,11111222,99999999' 
TABS,ioos:station:wmo:42047:1,2011-07-01T00:30:00Z,27.8966,-93.5973,2.0,263.7052662,44.14612101,-99999.0,'11111222,11111222,99999999' 
TABS,ioos:station:wmo:42047:1,2011-07-01T01:00:00Z,27.8966,-93.5973,2.0,275.6148349,41.49907951,-99999.0,'11111222,11111222,99999999' 
TABS,ioos:station:wmo:42047:1,2011-07-01T01:30:00Z,27.8966,-93.5973,2.0,274.7556843,39.80702074,-99999.0,'11111222,11111222,99999999' 
TABS,ioos:station:wmo:42047:1,2011-07-01T02:00:00Z,27.8966,-93.5973,2.0,281.4425105,37.40336883,-99999.0,'11111222,11111222,99999999' 
TABS,ioos:station:wmo:42047:1,2011-07-01T02:30:00Z,27.8966,-93.5973,2.0,292.1363754,34.97817034,-99999.0,'11111222,11111222,99999999' 
TABS,ioos:station:wmo:42047:1,2011-07-01T03:00:00Z,27.8966,-93.5973,2.0,297.4456835,38.42465485,-99999.0,'11111222,11111222,99999999' 
TABS,ioos:station:wmo:42047:1,2011-07-01T03:30:00Z,27.8966,-93.5973,2.0,307.0808772,40.80027573,-99999.0,'11111222,11111222,99999999' 
TABS,ioos:station:wmo:42047:1,2011-07-01T04:00:00Z,27.8966,-93.5973,2.0,308.6620604,46.56476887,-99999.0,'11111222,11111222,99999999' 
TABS,ioos:station:wmo:42047:1,2011-07-01T04:30:00Z,27.8966,-93.5973,2.0,303.7961651,46.58102833,-99999.0,'11111222,11111222,99999999' 
TABS,ioos:station:wmo:42047:1,2011-07-01T05:00:00Z,27.8966,-93.5973,2.0,328.8013059,35.92582636,-99999.0,'11111222,11111222,99999999' 
TABS,ioos:station:wmo:42047:1,2011-07-01T05:30:00Z,27.8966,-93.5973,2.0,341.1901281,33.80547293,-99999.0,'11111222,11111222,99999999' 
TABS,ioos:station:wmo:42047:1,2011-07-01T06:00:00Z,27.8966,-93.5973,2.0,347.7392114,32.49111417,-99999.0,'11111222,11111222,99999999' 
TABS,ioos:station:wmo:42047:1,2011-07-01T06:30:00Z,27.8966,-93.5973,2.0,355.1946971,32.94581157,-99999.0,'11111222,11111222,99999999' 
TABS,ioos:station:wmo:42047:1,2011-07-01T07:00:00Z,27.8966,-93.5973,2.0,3.888834732,30.67061134,-99999.0,'11111222,11111222,99999999' 
TABS,ioos:station:wmo:42047:1,2011-07-01T07:30:00Z,27.8966,-93.5973,2.0,6.227420403,29.68515622,-99999.0,'11111222,11111222,99999999' 
TABS,ioos:station:wmo:42047:1,2011-07-01T08:00:00Z,27.8966,-93.5973,2.0,5.446619435,26.76081464,-99999.0,'11111222,11111222,99999999' 
TABS,ioos:station:wmo:42047:1,2011-07-01T08:30:00Z,27.8966,-93.5973,2.0,13.47235544,23.65079491,-99999.0,'11111222,11111222,99999999' 
TABS,ioos:station:wmo:42047:1,2011-07-01T09:00:00Z,27.8966,-93.5973,2.0,19.64499056,21.41655668,-99999.0,'11111222,11111222,99999999' 
TABS,ioos:station:wmo:42047:1,2011-07-01T09:30:00Z,27.8966,-93.5973,2.0,25.96069579,22.88966579,-99999.0,'11111222,11111222,99999999' 
TABS,ioos:station:wmo:42047:1,2011-07-01T10:00:00Z,27.8966,-93.5973,2.0,33.8966691,20.01093951,-99999.0,'11111222,11111222,99999999' 
TABS,ioos:station:wmo:42047:1,2011-07-01T10:30:00Z,27.8966,-93.5973,2.0,34.55813328,20.87298972,-99999.0,'11111222,11111222,99999999' 
TABS,ioos:station:wmo:42047:1,2011-07-01T11:00:00Z,27.8966,-93.5973,2.0,41.84582675,22.87420381,-99999.0,'11111222,11111222,99999999' 
TABS,ioos:station:wmo:42047:1,2011-07-01T11:30:00Z,27.8966,-93.5973,2.0,49.16004796,23.68684234,-99999.0,'11111222,11111222,99999999' 
TABS,ioos:station:wmo:42047:1,2011-07-01T12:00:00Z,27.8966,-93.5973,2.0,57.69662449,20.17203262,-99999.0,'11111222,11111222,99999999' 
TABS,ioos:station:wmo:42047:1,2011-07-01T12:30:00Z,27.8966,-93.5973,2.0,65.34236929,19.07975891,-99999.0,'11111222,11111222,99999999' 
TABS,ioos:station:wmo:42047:1,2011-07-01T13:00:00Z,27.8966,-93.5973,2.0,75.61709539,18.43789576,-99999.0,'11111222,11111222,99999999' 
TABS,ioos:station:wmo:42047:1,2011-07-01T13:30:00Z,27.8966,-93.5973,2.0,79.15469767,16.68807059,-99999.0,'11111222,11111222,99999999' 
TABS,ioos:station:wmo:42047:1,2011-07-01T14:00:00Z,27.8966,-93.5973,2.0,88.72143085,18.37457483,-99999.0,'11111222,11111222,99999999' 
TABS,ioos:station:wmo:42047:1,2011-07-01T14:30:00Z,27.8966,-93.5973,2.0,96.48383158,16.7370547,-99999.0,'11111222,11111222,99999999' 
TABS,ioos:station:wmo:42047:1,2011-07-01T15:00:00Z,27.8966,-93.5973,2.0,109.5397026,16.89286536,-99999.0,'11111222,11111222,99999999' 
TABS,ioos:station:wmo:42047:1,2011-07-01T15:30:00Z,27.8966,-93.5973,2.0,124.6614252,12.92359857,-99999.0,'11111222,11111222,99999999' 
TABS,ioos:station:wmo:42047:1,2011-07-01T16:00:00Z,27.8966,-93.5973,2.0,139.6459875,12.30874892,-99999.0,'11111222,11111222,99999999' 
TABS,ioos:station:wmo:42047:1,2011-07-01T16:30:00Z,27.8966,-93.5973,2.0,145.1336307,7.836791435,-99999.0,'11133222,11111222,99999999' 
TABS,ioos:station:wmo:42047:1,2011-07-01T17:00:00Z,27.8966,-93.5973,2.0,149.2391606,11.61395712,-99999.0,'11111222,11111222,99999999' 
TABS,ioos:station:wmo:42047:1,2011-07-01T17:30:00Z,27.8966,-93.5973,2.0,165.8873155,12.75495982,-99999.0,'11111222,11111222,99999999' 
TABS,ioos:station:wmo:42047:1,2011-07-01T18:00:00Z,27.8966,-93.5973,2.0,171.1252159,14.58460147,-99999.0,'11111222,11111222,99999999' 
TABS,ioos:station:wmo:42047:1,2011-07-01T18:30:00Z,27.8966,-93.5973,2.0,178.0517091,13.23765085,-99999.0,'11111222,11111222,99999999' 
TABS,ioos:station:wmo:42047:1,2011-07-01T19:00:00Z,27.8966,-93.5973,2.0,178.3718651,15.13610914,-99999.0,'11111222,11111222,99999999' 
TABS,ioos:station:wmo:42047:1,2011-07-01T19:30:00Z,27.8966,-93.5973,2.0,203.2026341,17.46244256,-99999.0,'11111222,11111222,99999999' 
TABS,ioos:station:wmo:42047:1,2011-07-01T20:00:00Z,27.8966,-93.5973,2.0,210.196636,18.70874127,-99999.0,'11111222,11111222,99999999' 
TABS,ioos:station:wmo:42047:1,2011-07-01T20:30:00Z,27.8966,-93.5973,2.0,216.7310506,23.15806771,-99999.0,'11111222,11111222,99999999' 
TABS,ioos:station:wmo:42047:1,2011-07-01T21:00:00Z,27.8966,-93.5973,2.0,215.2888351,21.17005668,-99999.0,'11111222,11111222,99999999' 
TABS,ioos:station:wmo:42047:1,2011-07-01T21:30:00Z,27.8966,-93.5973,2.0,211.2266408,20.90932806,-99999.0,'11111222,11111222,99999999' 
TABS,ioos:station:wmo:42047:1,2011-07-01T22:00:00Z,27.8966,-93.5973,2.0,218.757485,21.00540169,-99999.0,'11111222,11111222,99999999' 
TABS,ioos:station:wmo:42047:1,2011-07-01T22:30:00Z,27.8966,-93.5973,2.0,234.1288562,21.79331319,-99999.0,'11111222,11111222,99999999' 
TABS,ioos:station:wmo:42047:1,2011-07-01T23:00:00Z,27.8966,-93.5973,2.0,241.8001383,24.14594169,-99999.0,'11111222,11111222,99999999' 
TABS,ioos:station:wmo:42047:1,2011-07-01T23:30:00Z,27.8966,-93.5973,2.0,248.01185859625,23.930685322406,-99999.0,'1111122,1111122,1199999999' 
TABS,ioos:station:wmo:42047:1,2011-07-02T00:00:00Z,27.8966,-93.5973,2.0,255.5672356,25.95920839,-99999.0,'11111222,11111222,99999999' 
TABS,ioos:station:wmo:42047:1,2011-07-02T00:30:00Z,27.8966,-93.5973,2.0,262.9849814,23.17345248,-99999.0,'11111222,11111222,99999999' 
TABS,ioos:station:wmo:42047:1,2011-07-02T01:00:00Z,27.8966,-93.5973,2.0,272.2020069,21.86614049,-99999.0,'11111222,11111222,99999999' 
TABS,ioos:station:wmo:42047:1,2011-07-02T01:30:00Z,27.8966,-93.5973,2.0,278.2165445,22.60198664,-99999.0,'11111222,11111222,99999999' 
TABS,ioos:station:wmo:42047:1,2011-07-02T02:00:00Z,27.8966,-93.5973,2.0,289.8103068,19.50422006,-99999.0,'11111222,11111222,99999999' 
TABS,ioos:station:wmo:42047:1,2011-07-02T02:30:00Z,27.8966,-93.5973,2.0,293.8923833,18.98698765,-99999.0,'11111222,11111222,99999999' 
TABS,ioos:station:wmo:42047:1,2011-07-02T03:00:00Z,27.8966,-93.5973,2.0,302.1221009,20.87564131,-99999.0,'11111222,11111222,99999999' 
TABS,ioos:station:wmo:42047:1,2011-07-02T03:30:00Z,27.8966,-93.5973,2.0,316.8189385,19.83019163,-99999.0,'11111222,11111222,99999999' 
TABS,ioos:station:wmo:42047:1,2011-07-02T04:00:00Z,27.8966,-93.5973,2.0,326.2606764,22.45149884,-99999.0,'11111222,11111222,99999999' 
TABS,ioos:station:wmo:42047:1,2011-07-02T04:30:00Z,27.8966,-93.5973,2.0,336.079258,21.03696271,-99999.0,'11111222,11111222,99999999' 
TABS,ioos:station:wmo:42047:1,2011-07-02T05:00:00Z,27.8966,-93.5973,2.0,339.8603063,19.66226081,-99999.0,'11111222,11111222,99999999' 
TABS,ioos:station:wmo:42047:1,2011-07-02T05:30:00Z,27.8966,-93.5973,2.0,348.9922759,21.2102546,-99999.0,'11111222,11111222,99999999' 
TABS,ioos:station:wmo:42047:1,2011-07-02T06:00:00Z,27.8966,-93.5973,2.0,357.3485749,22.26383839,-99999.0,'11111222,11111222,99999999' 
TABS,ioos:station:wmo:42047:1,2011-07-02T06:30:00Z,27.8966,-93.5973,2.0,2.022521558,21.2532374,-99999.0,'11111222,11111222,99999999' 
TABS,ioos:station:wmo:42047:1,2011-07-02T07:00:00Z,27.8966,-93.5973,2.0,5.058650754,20.98171823,-99999.0,'11111222,11111222,99999999' 
TABS,ioos:station:wmo:42047:1,2011-07-02T07:30:00Z,27.8966,-93.5973,2.0,353.6106195,20.48726434,-99999.0,'11111222,11111222,99999999' 
TABS,ioos:station:wmo:42047:1,2011-07-02T08:00:00Z,27.8966,-93.5973,2.0,0.41664634,16.51043609,-99999.0,'11111222,11111222,99999999' 
TABS,ioos:station:wmo:42047:1,2011-07-02T08:30:00Z,27.8966,-93.5973,2.0,3.825941272,16.33640413,-99999.0,'11111222,11111222,99999999' 
TABS,ioos:station:wmo:42047:1,2011-07-02T09:00:00Z,27.8966,-93.5973,2.0,358.7261726,12.5931132,-99999.0,'11111222,11111222,99999999' 
TABS,ioos:station:wmo:42047:1,2011-07-02T09:30:00Z,27.8966,-93.5973,2.0,5.653059008,10.86282652,-99999.0,'11111222,11111222,99999999' 
TABS,ioos:station:wmo:42047:1,2011-07-02T10:00:00Z,27.8966,-93.5973,2.0,14.63803825,9.932381386,-99999.0,'11133222,11111222,99999999' 
TABS,ioos:station:wmo:42047:1,2011-07-02T10:30:00Z,27.8966,-93.5973,2.0,6.665970336,8.356488497,-99999.0,'11133222,11111222,99999999' 
TABS,ioos:station:wmo:42047:1,2011-07-02T11:00:00Z,27.8966,-93.5973,2.0,338.0923829,6.995155466,-99999.0,'11133222,11111222,99999999' 
TABS,ioos:station:wmo:42047:1,2011-07-02T11:30:00Z,27.8966,-93.5973,2.0,347.6479068,10.56456341,-99999.0,'11111222,11111222,99999999' 
TABS,ioos:station:wmo:42047:1,2011-07-02T12:00:00Z,27.8966,-93.5973,2.0,354.3276209,9.004093514,-99999.0,'11133222,11111222,99999999' 
TABS,ioos:station:wmo:42047:1,2011-07-02T12:30:00Z,27.8966,-93.5973,2.0,2.835093247,7.278907885,-99999.0,'11133222,11111222,99999999' 
TABS,ioos:station:wmo:42047:1,2011-07-02T13:00:00Z,27.8966,-93.5973,2.0,4.135809025,7.349136004,-99999.0,'11133222,11111222,99999999' 
TABS,ioos:station:wmo:42047:1,2011-07-02T13:30:00Z,27.8966,-93.5973,2.0,8.242711536,6.487010097,-99999.0,'11133222,11111222,99999999' 
TABS,ioos:station:wmo:42047:1,2011-07-02T14:00:00Z,27.8966,-93.5973,2.0,25.57662995,5.443399673,-99999.0,'11133222,11111222,99999999' 
TABS,ioos:station:wmo:42047:1,2011-07-02T14:30:00Z,27.8966,-93.5973,2.0,3.248640379,3.705954668,-99999.0,'11133222,11111222,99999999' 
TABS,ioos:station:wmo:42047:1,2011-07-02T15:00:00Z,27.8966,-93.5973,2.0,19.5407562,4.42485028,-99999.0,'11133222,11111222,99999999' 
TABS,ioos:station:wmo:42047:1,2011-07-02T15:30:00Z,27.8966,-93.5973,2.0,356.2688222,1.843908891,-99999.0,'11133222,11111222,99999999' 
TABS,ioos:station:wmo:42047:1,2011-07-02T16:00:00Z,27.8966,-93.5973,2.0,103.7362362,0.463249393,-99999.0,'11133222,11111222,99999999' 
TABS,ioos:station:wmo:42047:1,2011-07-02T16:30:00Z,27.8966,-93.5973,2.0,321.0242947,1.41495583,-99999.0,'11133222,11111222,99999999' 
TABS,ioos:station:wmo:42047:1,2011-07-02T17:00:00Z,27.8966,-93.5973,2.0,300.7630685,0.488773976,-99999.0,'11133222,11111222,99999999' 
TABS,ioos:station:wmo:42047:1,2011-07-02T17:30:00Z,27.8966,-93.5973,2.0,185.7707123,1.889576672,-99999.0,'11133222,11111222,99999999' 
TABS,ioos:station:wmo:42047:1,2011-07-02T18:00:00Z,27.8966,-93.5973,2.0,164.4599135,3.881906748,-99999.0,'11133222,11111222,99999999' 
TABS,ioos:station:wmo:42047:1,2011-07-02T18:30:00Z,27.8966,-93.5973,2.0,163.4214993,9.077339919,-99999.0,'11133222,11111222,99999999' 
TABS,ioos:station:wmo:42047:1,2011-07-02T19:00:00Z,27.8966,-93.5973,2.0,185.4491592,12.00425341,-99999.0,'11111222,11111222,99999999' 
TABS,ioos:station:wmo:42047:1,2011-07-02T19:30:00Z,27.8966,-93.5973,2.0,202.7744615,16.50698337,-99999.0,'11111222,11111222,99999999' 
TABS,ioos:station:wmo:42047:1,2011-07-02T20:00:00Z,27.8966,-93.5973,2.0,211.6243325,17.54547235,-99999.0,'11111222,11111222,99999999' 
TABS,ioos:station:wmo:42047:1,2011-07-02T20:30:00Z,27.8966,-93.5973,2.0,225.1351348,17.94642026,-99999.0,'11111222,11111222,99999999' 
TABS,ioos:station:wmo:42047:1,2011-07-02T21:00:00Z,27.8966,-93.5973,2.0,206.7917408,20.32154522,-99999.0,'11111222,11111222,99999999' 
TABS,ioos:station:wmo:42047:1,2011-07-02T21:30:00Z,27.8966,-93.5973,2.0,216.3815649,19.48870699,-99999.0,'11111222,11111222,99999999' 
TABS,ioos:station:wmo:42047:1,2011-07-02T22:00:00Z,27.8966,-93.5973,2.0,215.4031712,19.85050125,-99999.0,'11111222,11111222,99999999' 
TABS,ioos:station:wmo:42047:1,2011-07-02T22:30:00Z,27.8966,-93.5973,2.0,219.61363805749,20.639660849927,-99999.0,'1111122,1111122,1199999999' 
TABS,ioos:station:wmo:42047:1,2011-07-02T23:00:00Z,27.8966,-93.5973,2.0,224.60964872271,18.682194731883,-99999.0,'1111122,1111122,1199999999' 
TABS,ioos:station:wmo:42047:1,2011-07-02T23:30:00Z,27.8966,-93.5973,2.0,228.65499261028,18.634811509645,-99999.0,'1111122,1111122,1199999999' 
TABS,ioos:station:wmo:42047:1,2011-07-03T00:00:00Z,27.8966,-93.5973,2.0,240.0263294,18.35480591,-99999.0,'11111222,11111222,99999999' 
TABS,ioos:station:wmo:42047:1,2011-07-03T00:30:00Z,27.8966,-93.5973,2.0,256.9158028,19.25998962,-99999.0,'11111222,11111222,99999999' 
TABS,ioos:station:wmo:42047:1,2011-07-03T01:00:00Z,27.8966,-93.5973,2.0,272.0917484,17.81186402,-99999.0,'11111222,11111222,99999999' 
TABS,ioos:station:wmo:42047:1,2011-07-03T01:30:00Z,27.8966,-93.5973,2.0,286.2112684,17.19360637,-99999.0,'11111222,11111222,99999999' 
TABS,ioos:station:wmo:42047:1,2011-07-03T02:00:00Z,27.8966,-93.5973,2.0,285.2495369,16.84302229,-99999.0,'11111222,11111222,99999999' 
TABS,ioos:station:wmo:42047:1,2011-07-03T02:30:00Z,27.8966,-93.5973,2.0,308.4639393,17.33070397,-99999.0,'11111222,11111222,99999999' 
TABS,ioos:station:wmo:42047:1,2011-07-03T03:00:00Z,27.8966,-93.5973,2.0,320.1468955,16.86886481,-99999.0,'11111222,11111222,99999999' 
TABS,ioos:station:wmo:42047:1,2011-07-03T03:30:00Z,27.8966,-93.5973,2.0,326.7871776,15.99256077,-99999.0,'11111222,11111222,99999999' 
TABS,ioos:station:wmo:42047:1,2011-07-03T04:00:00Z,27.8966,-93.5973,2.0,324.9975771,17.55532113,-99999.0,'11111222,11111222,99999999' 
TABS,ioos:station:wmo:42047:1,2011-07-03T04:30:00Z,27.8966,-93.5973,2.0,330.0453635,19.28629047,-99999.0,'11111222,11111222,99999999' 
TABS,ioos:station:wmo:42047:1,2011-07-03T05:00:00Z,27.8966,-93.5973,2.0,330.7913721,18.03295871,-99999.0,'11111222,11111222,99999999' 
TABS,ioos:station:wmo:42047:1,2011-07-03T05:30:00Z,27.8966,-93.5973,2.0,327.1584814,18.73427874,-99999.0,'11111222,11111222,99999999' 
TABS,ioos:station:wmo:42047:1,2011-07-03T06:00:00Z,27.8966,-93.5973,2.0,329.8450097,19.56822169,-99999.0,'11111222,11111222,99999999' 
TABS,ioos:station:wmo:42047:1,2011-07-03T06:30:00Z,27.8966,-93.5973,2.0,336.370888,18.16281916,-99999.0,'11111222,11111222,99999999' 
TABS,ioos:station:wmo:42047:1,2011-07-03T07:00:00Z,27.8966,-93.5973,2.0,329.3888936,19.52033811,-99999.0,'11111222,11111222,99999999' 
TABS,ioos:station:wmo:42047:1,2011-07-03T07:30:00Z,27.8966,-93.5973,2.0,324.9086584,21.20421185,-99999.0,'11111222,11111222,99999999' 
TABS,ioos:station:wmo:42047:1,2011-07-03T08:00:00Z,27.8966,-93.5973,2.0,328.2374156,20.53552288,-99999.0,'11111222,11111222,99999999' 
TABS,ioos:station:wmo:42047:1,2011-07-03T08:30:00Z,27.8966,-93.5973,2.0,325.5515729,22.20382174,-99999.0,'11111222,11111222,99999999' 
TABS,ioos:station:wmo:42047:1,2011-07-03T09:00:00Z,27.8966,-93.5973,2.0,329.9927443,21.37513041,-99999.0,'11111222,11111222,99999999' 
TABS,ioos:station:wmo:42047:1,2011-07-03T09:30:00Z,27.8966,-93.5973,2.0,337.4395221,18.63616377,-99999.0,'11111222,11111222,99999999' 
TABS,ioos:station:wmo:42047:1,2011-07-03T10:00:00Z,27.8966,-93.5973,2.0,340.0783823,19.9860001,-99999.0,'11111222,11111222,99999999' 
TABS,ioos:station:wmo:42047:1,2011-07-03T10:30:00Z,27.8966,-93.5973,2.0,336.588151,19.02643424,-99999.0,'11111222,11111222,99999999' 
TABS,ioos:station:wmo:42047:1,2011-07-03T11:00:00Z,27.8966,-93.5973,2.0,336.4835139,20.09938556,-99999.0,'11111222,11111222,99999999' 
TABS,ioos:station:wmo:42047:1,2011-07-03T11:30:00Z,27.8966,-93.5973,2.0,332.5531146,22.36780275,-99999.0,'11111222,11111222,99999999' 
TABS,ioos:station:wmo:42047:1,2011-07-03T12:00:00Z,27.8966,-93.5973,2.0,341.2372139,20.98521861,-99999.0,'11111222,11111222,99999999' 
TABS,ioos:station:wmo:42047:1,2011-07-03T12:30:00Z,27.8966,-93.5973,2.0,344.1020606,20.00519932,-99999.0,'11111222,11111222,99999999' 
TABS,ioos:station:wmo:42047:1,2011-07-03T13:00:00Z,27.8966,-93.5973,2.0,345.7267521,19.9147709,-99999.0,'11111222,11111222,99999999' 
TABS,ioos:station:wmo:42047:1,2011-07-03T13:30:00Z,27.8966,-93.5973,2.0,345.651543,20.45818418,-99999.0,'11111222,11111222,99999999' 
TABS,ioos:station:wmo:42047:1,2011-07-03T14:00:00Z,27.8966,-93.5973,2.0,341.2584165,19.48307214,-99999.0,'11111222,11111222,99999999' 
TABS,ioos:station:wmo:42047:1,2011-07-03T14:30:00Z,27.8966,-93.5973,2.0,342.6349274,21.17513872,-99999.0,'11111222,11111222,99999999' 
TABS,ioos:station:wmo:42047:1,2011-07-03T15:00:00Z,27.8966,-93.5973,2.0,343.5763866,20.72568455,-99999.0,'11111222,11111222,99999999' 
TABS,ioos:station:wmo:42047:1,2011-07-03T15:30:00Z,27.8966,-93.5973,2.0,357.5258323,19.68835697,-99999.0,'11111222,11111222,99999999' 
TABS,ioos:station:wmo:42047:1,2011-07-03T16:00:00Z,27.8966,-93.5973,2.0,2.745406959,15.86821036,-99999.0,'11111222,11111222,99999999' 
TABS,ioos:station:wmo:42047:1,2011-07-03T16:30:00Z,27.8966,-93.5973,2.0,18.51109065,16.69367844,-99999.0,'11111222,11111222,99999999' 
TABS,ioos:station:wmo:42047:1,2011-07-03T17:00:00Z,27.8966,-93.5973,2.0,23.15548025,13.91060746,-99999.0,'11111222,11111222,99999999' 
TABS,ioos:station:wmo:42047:1,2011-07-03T17:30:00Z,27.8966,-93.5973,2.0,21.11864304,11.6847807,-99999.0,'11111222,11111222,99999999' 
TABS,ioos:station:wmo:42047:1,2011-07-03T18:00:00Z,27.8966,-93.5973,2.0,32.46765237,11.9592851,-99999.0,'11111222,11111222,99999999' 
TABS,ioos:station:wmo:42047:1,2011-07-03T18:30:00Z,27.8966,-93.5973,2.0,38.90352363,10.65270858,-99999.0,'11111222,11111222,99999999' 
TABS,ioos:station:wmo:42047:1,2011-07-03T19:00:00Z,27.8966,-93.5973,2.0,34.86587764,10.40836683,-99999.0,'11111222,11111222,99999999' 
TABS,ioos:station:wmo:42047:1,2011-07-03T19:30:00Z,27.8966,-93.5973,2.0,47.67369998,12.43032582,-99999.0,'11111222,11111222,99999999' 
TABS,ioos:station:wmo:42047:1,2011-07-03T20:00:00Z,27.8966,-93.5973,2.0,79.27995668,8.762933299,-99999.0,'11133222,11111222,99999999' 
TABS,ioos:station:wmo:42047:1,2011-07-03T20:30:00Z,27.8966,-93.5973,2.0,86.95449372,8.281696686,-99999.0,'11133222,11111222,99999999' 
TABS,ioos:station:wmo:42047:1,2011-07-03T21:00:00Z,27.8966,-93.5973,2.0,105.0270743,6.171029088,-99999.0,'11133222,11111222,99999999' 
TABS,ioos:station:wmo:42047:1,2011-07-03T21:30:00Z,27.8966,-93.5973,2.0,85.63589678,3.811049724,-99999.0,'11133222,11111222,99999999' 
TABS,ioos:station:wmo:42047:1,2011-07-03T22:00:00Z,27.8966,-93.5973,2.0,103.5282838,4.103864033,-99999.0,'11133222,11111222,99999999' 
TABS,ioos:station:wmo:42047:1,2011-07-03T22:30:00Z,27.8966,-93.5973,2.0,80.32375153,2.201317787,-99999.0,'11133222,11111222,99999999' 
TABS,ioos:station:wmo:42047:1,2011-07-03T23:00:00Z,27.8966,-93.5973,2.0,151.93456051547,4.7823529773533,-99999.0,'1111122,1111122,1199999999' 
TABS,ioos:station:wmo:42047:1,2011-07-03T23:30:00Z,27.8966,-93.5973,2.0,161.20011484135,5.4613642984148,-99999.0,'1111122,1111122,1199999999' 
TABS,ioos:station:wmo:42047:1,2011-07-04T00:00:00Z,27.8966,-93.5973,2.0,166.5455688,6.446929502,-99999.0,'11133222,11111222,99999999' 
TABS,ioos:station:wmo:42047:1,2011-07-04T00:30:00Z,27.8966,-93.5973,2.0,175.2298786,7.576239173,-99999.0,'11133222,11111222,99999999' 
TABS,ioos:station:wmo:42047:1,2011-07-04T01:00:00Z,27.8966,-93.5973,2.0,185.9593109,10.30569745,-99999.0,'11111222,11111222,99999999' 
TABS,ioos:station:wmo:42047:1,2011-07-04T01:30:00Z,27.8966,-93.5973,2.0,202.4691177,9.079262085,-99999.0,'11133222,11111222,99999999' 
TABS,ioos:station:wmo:42047:1,2011-07-04T02:00:00Z,27.8966,-93.5973,2.0,262.4376262,9.270625653,-99999.0,'11133222,11111222,99999999' 
TABS,ioos:station:wmo:42047:1,2011-07-04T02:30:00Z,27.8966,-93.5973,2.0,301.5920679,11.89242616,-99999.0,'11111222,11111222,99999999' 
TABS,ioos:station:wmo:42047:1,2011-07-04T03:00:00Z,27.8966,-93.5973,2.0,321.9641466,16.21335869,-99999.0,'11111222,11111222,99999999' 
TABS,ioos:station:wmo:42047:1,2011-07-04T03:30:00Z,27.8966,-93.5973,2.0,337.9675593,17.9401728,-99999.0,'11111222,11111222,99999999' 
TABS,ioos:station:wmo:42047:1,2011-07-04T04:00:00Z,27.8966,-93.5973,2.0,345.7121099,28.68739096,-99999.0,'11111222,11111222,99999999' 
TABS,ioos:station:wmo:42047:1,2011-07-04T04:30:00Z,27.8966,-93.5973,2.0,354.8179861,29.78173433,-99999.0,'11111222,11111222,99999999' 
TABS,ioos:station:wmo:42047:1,2011-07-04T05:00:00Z,27.8966,-93.5973,2.0,4.911244348,30.02020986,-99999.0,'11111222,11111222,99999999' 
TABS,ioos:station:wmo:42047:1,2011-07-04T05:30:00Z,27.8966,-93.5973,2.0,9.822545907,24.8543296,-99999.0,'11111222,11111222,99999999' 
TABS,ioos:station:wmo:42047:1,2011-07-04T06:00:00Z,27.8966,-93.5973,2.0,9.860605984,18.21913554,-99999.0,'11111222,11111222,99999999' 
TABS,ioos:station:wmo:42047:1,2011-07-04T06:30:00Z,27.8966,-93.5973,2.0,26.19909814,13.9980713,-99999.0,'11111222,11111222,99999999' 
TABS,ioos:station:wmo:42047:1,2011-07-04T07:00:00Z,27.8966,-93.5973,2.0,33.36362017,12.16477291,-99999.0,'11111222,11111222,99999999' 
TABS,ioos:station:wmo:42047:1,2011-07-04T07:30:00Z,27.8966,-93.5973,2.0,32.01645206,11.10983798,-99999.0,'11111222,11111222,99999999' 
TABS,ioos:station:wmo:42047:1,2011-07-04T08:00:00Z,27.8966,-93.5973,2.0,34.35904873,10.4540375,-99999.0,'11111222,11111222,99999999' 
TABS,ioos:station:wmo:42047:1,2011-07-04T08:30:00Z,27.8966,-93.5973,2.0,15.2795919,8.272411982,-99999.0,'11133222,11111222,99999999' 
TABS,ioos:station:wmo:42047:1,2011-07-04T09:00:00Z,27.8966,-93.5973,2.0,15.86961378,9.325416881,-99999.0,'11133222,11111222,99999999' 
TABS,ioos:station:wmo:42047:1,2011-07-04T09:30:00Z,27.8966,-93.5973,2.0,344.8762385,10.34843466,-99999.0,'11111222,11111222,99999999' 
TABS,ioos:station:wmo:42047:1,2011-07-04T10:00:00Z,27.8966,-93.5973,2.0,353.5126882,11.59424426,-99999.0,'11111222,11111222,99999999' 
TABS,ioos:station:wmo:42047:1,2011-07-04T10:30:00Z,27.8966,-93.5973,2.0,359.0601657,10.97147666,-99999.0,'11111222,11144222,99999999' 
TABS,ioos:station:wmo:42047:1,2011-07-04T11:00:00Z,27.8966,-93.5973,2.0,0.347032164,8.26015133,-99999.0,'11133222,11111222,99999999' 
TABS,ioos:station:wmo:42047:1,2011-07-04T11:30:00Z,27.8966,-93.5973,2.0,348.4447532,10.98260443,-99999.0,'11111222,11111222,99999999' 
TABS,ioos:station:wmo:42047:1,2011-07-04T12:00:00Z,27.8966,-93.5973,2.0,355.6136274,14.51251184,-99999.0,'11111222,11111222,99999999' 
TABS,ioos:station:wmo:42047:1,2011-07-04T12:30:00Z,27.8966,-93.5973,2.0,2.266519549,20.73621952,-99999.0,'11111222,11111222,99999999' 
TABS,ioos:station:wmo:42047:1,2011-07-04T13:00:00Z,27.8966,-93.5973,2.0,4.807013998,18.73589603,-99999.0,'11111222,11111222,99999999' 
TABS,ioos:station:wmo:42047:1,2011-07-04T13:30:00Z,27.8966,-93.5973,2.0,359.8183201,18.90009524,-99999.0,'11111222,11144222,99999999' 
TABS,ioos:station:wmo:42047:1,2011-07-04T14:00:00Z,27.8966,-93.5973,2.0,0.434766532,17.14049299,-99999.0,'11111222,11111222,99999999' 
TABS,ioos:station:wmo:42047:1,2011-07-04T14:30:00Z,27.8966,-93.5973,2.0,0.564125768,15.24073817,-99999.0,'11111222,11111222,99999999' 
TABS,ioos:station:wmo:42047:1,2011-07-04T15:00:00Z,27.8966,-93.5973,2.0,357.1617114,16.76056383,-99999.0,'11111222,11111222,99999999' 
TABS,ioos:station:wmo:42047:1,2011-07-04T15:30:00Z,27.8966,-93.5973,2.0,8.399064095,17.18429807,-99999.0,'11111222,11111222,99999999' 